Hovedside
METAR-TAF:

METAR-TAF

Lufthavner :

Sandane, Norge

Sandane lufthamn

breddegrad: 61-50N, lengdegrad: 006-07E, høyde over havet: 6 m

Gjeldene værobservasjon

Denne rapporten ble laget for 59 minutter siden, klokken 19:20 UTC
Vind 5 kt fra Øst-nordøst
Temperatur 17°C
Luftfuktighet 77%
Trykk 1010 hPa
Sikt 10 km eller mer
Få skyer i en høyde av 4500 ft
Spredte skyer i en høyde av 6500 ft
Brutte skyer i en høyde av 8000 ft

METAR: ENSD 281920Z 06005KT 9999 FEW045 SCT065 BKN080 17/13 Q1010 RMK WIND 1138FT 29007KT

Tid: 22:19 (20:19 UTC)


TAF: fraværende

Værobservasjoner og værvarsel for over 4000 flyplasser (METAR- og TAF-rapporter).

Tilgjengelige stasjoner er representert av de røde og gule prikkene på kartet.

Hold musepekeren over prikken for å se navnet på stasjonen.

Klikk så for å se værobservasjoner og -varsler.

For å forandre kartet kan du klikke på den grønne knappen med svart kryss for å zoome inn, på den grønne knappen med strek for å zoome ut, eller på de grønne pilene for å se tilstøtende kart.


METAR-TAF: